[[{"header":{"parameterUnit":"m.s-1","parameterCategory":1,"la1":30.2991,"la2":30.254,"lo1":-89.0895,"lo2":-89.0444,"dx":0.0017,"dy":0.0017,"nx":28,"ny":28,"refTime":"2022-12-15T09:00:00:Z","depth":0,"parameterNumber":2,"parameterNumberName":"U-component_of_WINDS"},"data":[0,0,0,0,0,0,0,0,0,0,0,0,0,0,0,0,0,0,0,0,0,0,0,0,0,0,0,0,0,0,0,0,0,0,0,0,0,0,0,0,0,0,0,0,0,0,0,0,0,0,0,0,0,0,0,0,0,0,3.0908,3.0908,0,3.0947,3.0947,3.0948,3.0928,3.0927,3.0926,3.0925,3.0964,3.0966,3.0968,0,0,0,0,0,0,0,0,0,0,0,0,0,3.0818,3.082,3.0908,3.0908,3.0909,3.0947,3.0947,3.0948,3.0928,3.0927,3.0926,3.0924,3.0963,3.0966,3.0968,0,0,0,0,0,0,0,0,0,0,0,0,0,3.0857,3.082,3.0908,3.0904,3.0904,3.0947,3.0947,3.0948,3.0928,3.0927,3.0925,3.0924,3.0963,3.0965,3.0968,3.1017,0,0,3.0978,3.0979,0,0,0,0,0,0,0,0,3.0855,3.086,3.0904,3.0904,3.0904,3.0931,3.093,3.0971,3.0929,3.0919,3.0925,3.0923,3.0954,3.0958,3.0968,3.1019,3.1021,3.0978,3.098,3.0981,3.0982,0,0,0,0,0,0,0,3.0852,3.0858,3.0923,3.0904,3.0905,3.09,3.0904,3.0937,3.0945,3.092,3.0918,3.0923,3.0954,3.0966,3.0969,3.1021,3.0978,3.098,3.0982,3.0983,3.1117,3.1118,0,0,0,0,0,0,3.0849,3.0856,3.0922,3.0924,3.0875,3.0903,3.0907,3.0924,3.0944,3.0946,3.0925,3.0922,3.0961,3.0966,3.097,3.103,3.0981,3.0984,3.0985,3.1115,3.1117,3.1119,0,0,0,0,0,0,3.0848,3.0855,3.092,3.089,3.0898,3.0906,3.0925,3.0925,3.0937,3.0948,3.0949,3.0935,3.096,3.0966,3.1006,3.1031,3.0985,3.0988,3.1113,3.1116,3.1118,3.115,0,0,0,0,0,0,3.0845,3.0855,3.0873,3.0891,3.09,3.0955,3.0926,3.0927,3.0942,3.094,3.0958,3.096,3.0959,3.1002,3.1009,3.1035,3.099,3.1111,3.1114,3.1117,3.1147,3.1153,3.1159,0,0,0,0,0,3.0842,3.088,3.0874,3.0882,3.0923,3.0957,3.0962,3.0961,3.0944,3.0963,3.0971,3.0959,3.1028,3.1006,3.1014,3.1041,3.1109,3.1113,3.1117,3.1144,3.1152,3.1159,0,0,0,0,0,0,3.0865,3.0882,3.0876,3.0921,3.0938,3.0954,3.0977,3.097,3.0991,3.0988,3.0986,3.099,3.1032,3.1041,3.1017,3.1091,3.1066,3.1072,3.1084,3.1091,3.1097,3.1095,3.0993,0,0,0,0,0,3.0875,3.0901,3.0915,3.0954,3.0962,3.0969,3.0983,3.0982,3.0999,3.1006,3.1016,3.1033,3.1059,3.1075,3.1099,3.1148,3.1152,3.1171,3.1177,3.1182,3.1187,3.1215,3.1223,3.1132,3.1132,3.1132,0,0,3.0896,3.0909,3.0926,3.0959,3.0971,3.0999,3.0974,3.1004,3.1025,3.101,3.1049,3.1057,3.1077,3.1122,3.1142,3.113,3.1213,3.1187,3.1191,3.1193,3.122,3.1228,3.1236,3.1135,3.1134,3.1134,0,0,3.095,3.0962,3.0996,3.101,3.103,3.1034,3.1042,3.106,3.1065,3.1104,3.1094,3.1119,3.1163,3.1177,3.119,3.1252,3.1243,3.126,3.1292,3.1319,3.1327,3.1333,3.1356,3.1364,3.1265,3.1265,3.1265,0,3.0974,3.1015,3.1014,3.1046,3.1061,3.105,3.1085,3.1098,3.1125,3.1136,3.1122,3.1178,3.119,3.1239,3.1255,3.1265,3.1275,3.1258,3.1326,3.1332,3.1338,3.136,3.1369,3.1267,3.1267,3.1267,3.1266,0,3.1044,3.1073,3.1098,3.1126,3.1144,3.1177,3.1181,3.12,3.1197,3.1203,3.1244,3.1259,3.1286,3.1298,3.1295,3.1347,3.1339,3.1326,3.1301,3.1349,3.1369,3.1378,3.127,3.1269,3.1269,3.1268,0,0,3.1111,3.1139,3.1149,3.1162,3.1184,3.1207,3.124,3.1268,3.1284,3.1304,3.1332,3.137,3.1359,3.1374,3.1373,3.1397,3.1446,3.138,3.1381,3.1393,3.1506,3.1517,3.1526,3.144,3.1442,3.1443,3.1505,0,3.1167,3.1225,3.1227,3.128,3.1308,3.1298,3.1328,3.1345,3.1352,3.1377,3.1384,3.1412,3.1394,3.1403,3.1426,3.1435,3.1469,3.1431,3.1467,3.1469,3.1463,3.1537,3.1547,3.1605,3.1513,3.1514,3.1515,0,3.1239,3.1262,3.1319,3.1339,3.1351,3.1377,3.1403,3.1427,3.1447,3.145,3.1468,3.1464,3.1499,3.1474,3.1522,3.1496,3.1511,3.1518,3.152,3.1524,3.1495,3.1543,3.1623,3.1632,3.1528,3.1527,3.1526,0,3.1284,3.1329,3.1369,3.1381,3.1405,3.1424,3.1435,3.1453,3.1471,3.1494,3.1505,3.1532,3.1547,3.1568,3.1572,3.1552,3.1621,3.1595,3.1625,3.1625,3.164,3.1639,3.1724,3.1649,3.1649,3.1649,3.1649,0,3.1346,3.1381,3.139,3.1415,3.1454,3.1456,3.1495,3.1505,3.1522,3.1549,3.1542,3.1568,3.1571,3.1598,3.1601,3.1641,3.1648,3.1652,3.1652,3.1653,3.1652,3.1663,3.1659,3.1651,3.1651,3.165,3.165,0,3.1403,3.141,3.1453,3.1473,3.1479,3.1508,3.1525,3.1549,3.1556,3.159,3.1599,3.161,3.1641,3.1647,3.1683,3.1685,3.1734,3.173,3.1727,3.1727,3.1757,3.1755,3.1852,3.1866,3.1782,3.1782,3.1783,0,3.1442,3.1469,3.1493,3.1511,3.1523,3.1551,3.1569,3.1573,3.1592,3.1618,3.1639,3.167,3.1694,3.1745,3.1756,3.1785,3.1782,3.1814,3.1786,3.1786,3.1783,3.1782,3.1785,3.1819,3.182,3.1821,3.1822,0,3.1511,3.1514,3.154,3.1568,3.159,3.1612,3.1633,3.1648,3.1654,3.1676,3.1708,3.1728,3.1766,3.1797,3.1826,3.1837,3.1831,3.1831,3.1839,3.184,3.1838,3.184,3.1743,3.1828,3.1828,3.1827,3.1827,3.1827,3.1561,3.1585,3.1606,3.1636,3.1653,3.1673,3.1697,3.1708,3.1735,3.1766,3.1767,3.1802,3.1823,3.1861,3.1875,3.1904,3.1893,3.1906,3.1909,3.1912,3.1915,3.1833,3.1909,3.1909,3.1908,3.1908,3.1908,0,3.1631,3.1644,3.1672,3.1702,3.1726,3.1719,3.1742,3.1762,3.1794,3.1814,3.1839,3.1877,3.1908,3.1922,3.1953,3.1973,3.1971,3.198,3.1979,3.1982,3.1922,3.1912,3.1982,3.1982,3.1982,3.1982,3.1982,3.1982,3.167,3.1711,3.1717,3.1767,3.178,3.1815,3.1829,3.1848,3.1865,3.1908,3.1933,3.1943,3.1961,3.1993,3.2021,3.2025,3.2036,3.2048,3.205,3.1994,3.1986,3.1979,3.197,3.205,3.205,3.2108,3.2109,3.2109]},{"header":{"parameterUnit":"m.s-1","parameterCategory":1,"la1":30.2991,"la2":30.254,"lo1":-89.0895,"lo2":-89.0444,"dx":0.0017,"dy":0.0017,"nx":28,"ny":28,"refTime":"2022-12-15T09:00:00:Z","depth":0,"parameterNumber":3,"parameterNumberName":"V-component_of_WINDS"},"data":[0,0,0,0,0,0,0,0,0,0,0,0,0,0,0,0,0,0,0,0,0,0,0,0,0,0,0,0,0,0,0,0,0,0,0,0,0,0,0,0,0,0,0,0,0,0,0,0,0,0,0,0,0,0,0,0,0,0,-3.5837,-3.5838,0,-3.5949,-3.5951,-3.5952,-3.5967,-3.5966,-3.5964,-3.5963,-3.6077,-3.6081,-3.6084,0,0,0,0,0,0,0,0,0,0,0,0,0,-3.5635,-3.5639,-3.5837,-3.5838,-3.584,-3.5949,-3.5951,-3.5952,-3.5967,-3.5965,-3.5964,-3.5963,-3.6075,-3.608,-3.6085,0,0,0,0,0,0,0,0,0,0,0,0,0,-3.5733,-3.564,-3.5837,-3.586,-3.5863,-3.5949,-3.5951,-3.5953,-3.5967,-3.5965,-3.5964,-3.5962,-3.6074,-3.608,-3.6086,-3.6155,0,0,-3.6104,-3.6106,0,0,0,0,0,0,0,0,-3.5727,-3.574,-3.5855,-3.5859,-3.5863,-3.5942,-3.5921,-3.602,-3.5967,-3.5928,-3.5963,-3.5962,-3.6033,-3.6042,-3.6067,-3.616,-3.6165,-3.6104,-3.6108,-3.6111,-3.6112,0,0,0,0,0,0,0,-3.572,-3.5735,-3.5881,-3.5857,-3.5861,-3.5865,-3.5877,-3.594,-3.5988,-3.5931,-3.5932,-3.5946,-3.6035,-3.6061,-3.607,-3.6166,-3.6104,-3.611,-3.6113,-3.6116,-3.6324,-3.6326,0,0,0,0,0,0,-3.5709,-3.5729,-3.5878,-3.5885,-3.579,-3.587,-3.5884,-3.5918,-3.5987,-3.5996,-3.5947,-3.5946,-3.6052,-3.6063,-3.6074,-3.6161,-3.6111,-3.6116,-3.612,-3.6322,-3.6325,-3.6327,0,0,0,0,0,0,-3.5705,-3.5722,-3.5873,-3.5808,-3.5827,-3.5875,-3.5914,-3.5921,-3.5948,-3.5999,-3.6008,-3.5965,-3.6051,-3.6065,-3.6135,-3.6165,-3.6119,-3.6124,-3.632,-3.6323,-3.6326,-3.6334,0,0,0,0,0,0,-3.5699,-3.5721,-3.5747,-3.5808,-3.5831,-3.5933,-3.5916,-3.5925,-3.5958,-3.5958,-3.6018,-3.6027,-3.6051,-3.6126,-3.6141,-3.6172,-3.6129,-3.6317,-3.6321,-3.6325,-3.6332,-3.6337,-3.6342,0,0,0,0,0,-3.5692,-3.5744,-3.5748,-3.5766,-3.5865,-3.5934,-3.5947,-3.5974,-3.596,-3.5988,-3.6021,-3.6025,-3.6159,-3.6133,-3.615,-3.6184,-3.6316,-3.632,-3.6324,-3.6329,-3.6336,-3.6342,0,0,0,0,0,0,-3.5684,-3.5752,-3.5758,-3.5832,-3.5877,-3.5937,-3.5972,-3.598,-3.603,-3.6027,-3.6058,-3.6071,-3.614,-3.6169,-3.6138,-3.6255,-3.6236,-3.6244,-3.6234,-3.6241,-3.6246,-3.6238,-3.6134,0,0,0,0,0,-3.5691,-3.5743,-3.5799,-3.5859,-3.5882,-3.5923,-3.5954,-3.5971,-3.6019,-3.6038,-3.6077,-3.6123,-3.6176,-3.621,-3.6261,-3.6336,-3.635,-3.6367,-3.6373,-3.6377,-3.6383,-3.6427,-3.6436,-3.6341,-3.6341,-3.6341,0,0,-3.5706,-3.575,-3.578,-3.5859,-3.5896,-3.5948,-3.5939,-3.5994,-3.6034,-3.6046,-3.6115,-3.6145,-3.6199,-3.6272,-3.6306,-3.6298,-3.6413,-3.6382,-3.6385,-3.6389,-3.6432,-3.6441,-3.6449,-3.6344,-3.6343,-3.6343,0,0,-3.576,-3.5798,-3.5853,-3.5891,-3.5948,-3.5976,-3.5989,-3.6048,-3.6069,-3.6139,-3.615,-3.6198,-3.6287,-3.6326,-3.6357,-3.6429,-3.6435,-3.6445,-3.6472,-3.6514,-3.6521,-3.6528,-3.6555,-3.6564,-3.6451,-3.6451,-3.6451,0,-3.5771,-3.5851,-3.588,-3.5936,-3.5971,-3.5986,-3.6043,-3.6078,-3.6149,-3.6172,-3.6162,-3.6277,-3.6314,-3.6398,-3.6416,-3.644,-3.6457,-3.6438,-3.6518,-3.6525,-3.6532,-3.6558,-3.6568,-3.6452,-3.6452,-3.6452,-3.6452,0,-3.5863,-3.5918,-3.5956,-3.6025,-3.6064,-3.612,-3.6158,-3.6194,-3.6208,-3.6236,-3.6308,-3.6354,-3.6416,-3.6437,-3.645,-3.6523,-3.6516,-3.6512,-3.6493,-3.6542,-3.6567,-3.6577,-3.6453,-3.6453,-3.6453,-3.6452,0,0,-3.5914,-3.6001,-3.6014,-3.6047,-3.6112,-3.6156,-3.6213,-3.6274,-3.6306,-3.6354,-3.6403,-3.648,-3.6478,-3.6513,-3.6531,-3.6568,-3.6624,-3.656,-3.6562,-3.6571,-3.6709,-3.6713,-3.6724,-3.6629,-3.6631,-3.6632,-3.6705,0,-3.5977,-3.608,-3.6108,-3.6195,-3.6248,-3.6264,-3.6315,-3.636,-3.6389,-3.6438,-3.6469,-3.6524,-3.6515,-3.6538,-3.6575,-3.661,-3.6653,-3.6605,-3.6675,-3.6678,-3.6662,-3.6737,-3.674,-3.6807,-3.6715,-3.6717,-3.6718,0,-3.6063,-3.6116,-3.6208,-3.6269,-3.6293,-3.6337,-3.6397,-3.6443,-3.6496,-3.6514,-3.6556,-3.6571,-3.6632,-3.6611,-3.6696,-3.6662,-3.6693,-3.6715,-3.6718,-3.6726,-3.6701,-3.6748,-3.6829,-3.6839,-3.6733,-3.6732,-3.6731,0,-3.6093,-3.6187,-3.6255,-3.6282,-3.6355,-3.6386,-3.6417,-3.6469,-3.6505,-3.6557,-3.6581,-3.6639,-3.6671,-3.6716,-3.6747,-3.6729,-3.6831,-3.6811,-3.6848,-3.6848,-3.6869,-3.6867,-3.6957,-3.6887,-3.6887,-3.6887,-3.6887,0,-3.6161,-3.6217,-3.627,-3.6312,-3.6376,-3.6409,-3.6471,-3.6503,-3.6549,-3.6598,-3.6616,-3.6661,-3.6699,-3.675,-3.6775,-3.6843,-3.6856,-3.6874,-3.688,-3.6873,-3.6871,-3.6894,-3.689,-3.689,-3.6889,-3.6889,-3.6888,0,-3.6205,-3.6242,-3.6318,-3.6381,-3.6399,-3.6443,-3.6497,-3.6539,-3.6569,-3.6631,-3.6648,-3.6695,-3.6756,-3.6792,-3.6868,-3.6885,-3.696,-3.6964,-3.6943,-3.6946,-3.6982,-3.6978,-3.709,-3.7106,-3.7025,-3.7025,-3.7026,0,-3.6246,-3.629,-3.6359,-3.6393,-3.6426,-3.6481,-3.6518,-3.6552,-3.6591,-3.6656,-3.669,-3.6752,-3.6804,-3.6901,-3.6942,-3.7001,-3.7007,-3.7042,-3.7016,-3.7008,-3.7009,-3.7007,-3.7012,-3.7046,-3.7047,-3.7048,-3.7048,0,-3.6315,-3.6332,-3.6386,-3.6447,-3.6491,-3.6541,-3.659,-3.6617,-3.6659,-3.6702,-3.6765,-3.6806,-3.6885,-3.6947,-3.701,-3.7043,-3.7053,-3.7056,-3.7068,-3.7062,-3.7049,-3.7058,-3.6956,-3.7054,-3.7053,-3.7053,-3.7052,-3.7052,-3.636,-3.6401,-3.6456,-3.6516,-3.6557,-3.6603,-3.6646,-3.6683,-3.6736,-3.6804,-3.6821,-3.6888,-3.6942,-3.7028,-3.7062,-3.7116,-3.711,-3.7127,-3.7131,-3.7135,-3.7137,-3.704,-3.7127,-3.7127,-3.7127,-3.7127,-3.7127,0,-3.6431,-3.6468,-3.6523,-3.6592,-3.664,-3.6646,-3.6701,-3.6741,-3.68,-3.6849,-3.6901,-3.6975,-3.7036,-3.7082,-3.7145,-3.7179,-3.7185,-3.7194,-3.7193,-3.72,-3.7138,-3.7122,-3.7188,-3.7188,-3.7188,-3.7188,-3.7188,-3.7188,-3.6474,-3.6544,-3.6568,-3.6659,-3.6696,-3.6763,-3.6794,-3.6837,-3.6877,-3.6959,-3.701,-3.7041,-3.709,-3.7157,-3.7214,-3.7226,-3.7249,-3.7257,-3.727,-3.7211,-3.7204,-3.7198,-3.7183,-3.7261,-3.7261,-3.7328,-3.7329,-3.7329]}]]